Total_Precipitation_Accumulation
1.19 1.14 1.01 1.02 0.95 0.95 1.01 1.05 1.05 1.10 1.17 1.13 1.06 1.06 1.09 1.07 1.00 0.99 1.28 1.88 2.83 3.52 3.73 3.62 3.10 2.80 2.62 2.35 2.24 2.39 2.57 2.62 2.52 2.44 2.55 2.66 2.58 2.38 2.30 2.25 2.28 2.24 2.25
1.08 1.12 1.08 1.10 1.07 1.03 1.00 0.99 0.98 1.12 1.16 1.19 1.16 1.10 1.07 0.97 0.98 1.12 1.33 1.54 1.82 2.48 3.41 3.69 3.45 3.17 2.98 2.68 2.48 2.42 2.45 2.44 2.37 2.36 2.38 2.39 2.31 2.09 2.04 2.22 2.41 2.25 2.16
1.06 1.09 1.09 1.11 1.10 1.10 1.07 1.07 1.10 1.18 1.22 1.31 1.34 1.17 1.09 1.04 1.00 1.09 1.22 1.37 1.26 1.38 2.14 3.01 3.40 3.22 3.12 2.92 2.61 2.51 2.47 2.44 2.28 2.37 2.32 2.29 2.16 2.07 2.03 2.26 2.45 2.34 2.13
1.01 1.11 1.13 1.15 1.21 1.14 1.12 1.21 1.27 1.35 1.39 1.45 1.45 1.26 1.08 1.18 1.10 1.07 1.20 1.23 1.19 1.12 1.37 1.81 2.27 2.61 3.03 3.19 2.97 2.71 2.54 2.37 2.16 2.26 2.27 2.18 2.07 2.08 2.06 2.31 2.33 2.31 2.21
1.18 1.30 1.35 1.35 1.36 1.37 1.32 1.23 1.27 1.39 1.53 1.54 1.36 1.28 1.19 1.23 1.22 1.16 1.32 1.29 1.25 1.24 1.30 1.24 1.33 1.67 2.31 2.92 3.05 2.96 2.69 2.38 2.18 2.17 2.18 2.04 2.11 2.17 2.09 2.17 2.18 2.14 2.13
1.42 1.59 1.64 1.53 1.55 1.66 1.72 1.55 1.59 1.51 1.48 1.58 1.40 1.34 1.34 1.29 1.26 1.32 1.35 1.42 1.52 1.36 1.34 1.27 1.21 1.08 1.43 1.97 2.49 2.89 2.95 2.76 2.48 2.37 2.37 2.08 2.04 2.13 2.14 2.08 2.05 2.05 2.02
1.76 1.96 2.00 1.97 1.97 1.97 1.94 1.86 2.03 1.94 1.65 1.58 1.82 1.81 1.63 1.44 1.35 1.33 1.37 1.59 1.67 1.58 1.59 1.50 1.40 1.25 1.14 1.18 1.56 2.39 2.90 3.08 3.00 2.71 2.61 2.40 2.03 1.94 2.01 1.92 1.91 1.98 2.02
1.99 2.02 2.25 2.38 2.35 2.54 2.55 2.32 2.44 2.46 2.05 1.81 2.12 2.47 2.18 1.94 1.49 1.37 1.49 1.54 1.63 1.70 1.75 1.58 1.42 1.32 1.29 1.26 1.14 1.62 2.15 2.76 3.10 2.85 2.84 2.84 2.29 2.02 1.89 1.83 1.89 1.93 2.02
2.18 2.23 2.32 2.49 2.49 2.59 2.80 2.91 2.81 2.88 2.67 2.23 2.11 2.47 2.41 2.24 2.01 1.63 1.52 1.58 1.72 1.78 1.82 1.78 1.58 1.31 1.30 1.37 1.20 1.14 1.39 1.75 2.43 2.81 2.99 3.16 2.70 2.24 1.88 1.84 1.86 1.83 1.99
2.43 2.51 2.52 2.59 2.61 2.62 2.75 2.90 2.89 3.05 3.16 2.75 2.37 2.13 1.99 2.00 2.17 1.99 1.70 1.62 1.75 1.76 1.76 1.78 1.79 1.62 1.44 1.48 1.37 1.13 1.13 1.26 1.70 2.39 2.80 3.17 3.02 2.56 2.09 1.99 2.06 1.99 2.03
2.57 2.60 2.65 2.78 2.77 2.74 2.69 2.91 2.99 3.10 3.05 2.99 2.84 2.66 2.50 2.26 1.91 2.04 2.04 1.84 1.72 1.60 1.66 1.79 1.94 1.87 1.67 1.61 1.69 1.34 1.10 1.11 1.27 1.87 2.39 3.07 3.24 2.89 2.60 2.43 2.27 2.17 1.98
2.62 2.50 2.42 2.57 2.63 2.66 2.63 2.79 2.93 3.07 3.06 3.10 3.03 2.74 2.75 2.66 2.29 2.24 2.08 1.89 1.90 1.70 1.61 1.69 1.75 1.74 1.70 1.65 1.55 1.51 1.22 1.07 1.13 1.42 1.88 2.45 3.14 3.16 3.02 2.94 2.68 2.56 2.34
2.43 2.45 2.36 2.38 2.41 2.35 2.34 2.45 2.49 2.56 2.72 2.92 2.81 2.58 2.52 2.36 2.36 2.47 2.38 2.11 1.90 1.66 1.64 1.61 1.60 1.60 1.55 1.56 1.60 1.65 1.28 1.06 1.06 1.21 1.54 1.86 2.40 2.98 3.15 3.03 2.92 2.99 3.01
2.14 2.20 2.22 2.19 2.25 2.29 2.23 2.31 2.33 2.31 2.34 2.41 2.35 2.46 2.51 2.35 2.29 2.30 2.38 2.57 2.30 2.01 1.81 1.63 1.61 1.66 1.58 1.51 1.63 1.67 1.34 1.19 1.08 1.08 1.24 1.53 1.89 2.42 2.85 2.85 2.90 3.09 3.19
1.68 1.75 1.82 1.96 2.10 2.17 2.18 2.27 2.35 2.31 2.22 2.19 2.28 2.37 2.31 2.26 2.24 2.17 2.19 2.38 2.52 2.35 2.14 1.91 1.76 1.71 1.70 1.58 1.65 1.46 1.42 1.36 1.19 1.15 1.16 1.15 1.35 1.71 2.02 2.28 2.50 2.50 2.67
1.32 1.37 1.48 1.68 1.99 2.15 2.18 2.23 2.27 2.29 2.29 2.22 2.29 2.40 2.44 2.40 2.42 2.37 2.26 2.26 2.22 2.27 2.17 1.91 1.73 1.66 1.80 1.64 1.76 1.48 1.44 1.64 1.41 1.31 1.22 1.09 1.10 1.20 1.36 1.60 1.89 2.06 2.11
1.20 1.27 1.34 1.50 1.68 1.91 2.15 2.29 2.28 2.21 2.20 2.17 2.09 2.20 2.35 2.39 2.50 2.54 2.55 2.46 2.33 2.28 2.20 1.99 1.79 1.70 1.89 1.89 1.79 1.68 1.52 1.47 1.47 1.47 1.33 1.25 1.18 1.09 1.14 1.25 1.51 1.72 1.93
1.09 1.12 1.28 1.49 1.61 1.70 1.79 1.91 1.97 1.96 1.98 2.03 1.99 1.96 2.02 2.10 2.22 2.38 2.47 2.45 2.46 2.36 2.29 2.28 2.08 1.83 1.75 1.82 1.85 1.92 1.82 1.57 1.51 1.61 1.53 1.43 1.35 1.23 1.12 1.11 1.23 1.34 1.50
1.12 1.11 1.20 1.35 1.42 1.51 1.57 1.66 1.79 1.87 1.85 1.80 1.82 1.73 1.70 1.80 1.92 2.07 2.14 2.23 2.38 2.42 2.45 2.42 2.34 2.13 1.88 1.86 1.93 1.95 1.96 2.00 1.74 1.65 1.65 1.60 1.54 1.49 1.38 1.20 1.12 1.15 1.17
1.14 1.17 1.28 1.34 1.37 1.38 1.51 1.58 1.66 1.66 1.59 1.49 1.50 1.46 1.46 1.48 1.58 1.74 1.86 2.06 2.26 2.39 2.48 2.49 2.43 2.21 2.01 1.94 1.91 1.95 2.06 2.11 2.07 1.82 1.71 1.63 1.70 1.65 1.50 1.36 1.22 1.17 1.18
1.14 1.21 1.27 1.35 1.40 1.42 1.45 1.52 1.49 1.40 1.38 1.35 1.29 1.15 1.13 1.21 1.24 1.34 1.35 1.62 1.89 2.12 2.25 2.32 2.32 2.17 1.95 1.86 1.71 1.75 1.89 2.08 2.14 2.08 1.98 1.71 1.64 1.57 1.53 1.50 1.40 1.31 1.23
1.04 1.09 1.15 1.31 1.42 1.33 1.50 1.45 1.29 1.17 1.16 1.20 1.15 1.03 0.98 1.03 0.97 0.97 1.00 1.22 1.53 1.70 1.86 2.06 2.12 1.99 1.82 1.75 1.80 1.78 1.78 1.83 1.87 1.78 1.77 1.77 1.68 1.59 1.54 1.50 1.53 1.49 1.38
0.96 1.01 1.01 1.14 1.22 1.32 1.34 1.18 1.18 1.11 1.11 1.11 1.13 1.13 1.03 0.96 1.06 0.94 0.91 1.00 1.08 1.20 1.37 1.64 1.85 1.82 1.91 1.83 1.73 1.65 1.66 1.69 1.69 1.73 1.75 1.73 1.63 1.54 1.44 1.42 1.57 1.47 1.46
0.87 0.91 0.92 0.91 0.97 1.13 1.15 1.01 1.08 1.02 1.13 1.18 1.19 1.27 1.26 1.17 1.16 1.24 1.15 1.14 1.08 1.01 1.12 1.04 1.23 1.61 1.78 1.85 1.81 1.83 1.92 1.84 1.67 1.67 1.69 1.69 1.59 1.48 1.34 1.27 1.38 1.29 1.22
0.85 0.82 0.86 0.87 0.90 0.96 0.98 0.91 0.95 0.98 1.13 1.16 1.10 1.23 1.29 1.19 1.29 1.42 1.47 1.47 1.37 1.18 1.30 1.31 1.20 1.32 1.51 1.57 1.69 1.77 1.82 1.75 1.67 1.55 1.42 1.39 1.33 1.36 1.40 1.31 1.26 1.31 1.23
0.88 0.84 0.80 0.78 0.78 0.80 0.89 0.81 0.91 0.98 1.06 1.10 1.13 1.17 1.35 1.26 1.25 1.24 1.30 1.41 1.37 1.20 1.07 1.09 1.06 0.96 0.90 1.03 1.25 1.38 1.66 1.79 1.72 1.60 1.40 1.34 1.35 1.34 1.36 1.26 1.16 1.20 1.20